TimeCST,TemperatureF,Dew PointF,Humidity,Sea Level PressureIn,VisibilityMPH,Wind Direction,Wind SpeedMPH,Gust SpeedMPH,PrecipitationIn,Events,Conditions,WindDirDegrees,DateUTC
12:53 AM,30.9,24.1,76,29.60,10.0,West,33.4,43.7,N/A,,Overcast,280,2013-02-11 06:53:00
1:53 AM,30.9,25.0,79,29.64,10.0,West,25.3,33.4,N/A,,Overcast,280,2013-02-11 07:53:00
2:53 AM,30.9,24.1,76,29.68,10.0,West,29.9,38.0,N/A,,Overcast,280,2013-02-11 08:53:00
3:53 AM,30.0,23.0,75,29.73,10.0,West,27.6,38.0,N/A,,Overcast,280,2013-02-11 09:53:00
4:53 AM,30.0,21.9,72,29.78,10.0,West,28.8,43.7,N/A,,Overcast,280,2013-02-11 10:53:00
6:53 AM,28.0,21.9,78,29.86,10.0,WNW,23.0,34.5,N/A,,Overcast,290,2013-02-11 12:53:00
7:53 AM,27.0,19.9,75,29.90,10.0,WNW,19.6,40.3,N/A,,Scattered Clouds,290,2013-02-11 13:53:00
8:09 AM,26.6,19.4,74,29.89,10.0,WNW,26.5,36.8,N/A,,Mostly Cloudy,300,2013-02-11 14:09:00
8:53 AM,27.0,19.0,72,29.94,10.0,WNW,29.9,41.4,N/A,,Overcast,290,2013-02-11 14:53:00
9:53 AM,28.9,19.9,69,29.97,10.0,WNW,24.2,38.0,N/A,,Mostly Cloudy,300,2013-02-11 15:53:00
10:53 AM,28.9,21.0,72,30.01,10.0,WNW,23.0,34.5,N/A,,Overcast,290,2013-02-11 16:53:00
11:53 AM,28.0,21.0,75,30.02,10.0,WNW,23.0,34.5,N/A,,Overcast,290,2013-02-11 17:53:00
12:53 PM,28.9,21.0,72,30.04,10.0,West,24.2,32.2,N/A,,Overcast,280,2013-02-11 18:53:00
1:53 PM,28.9,21.0,72,30.04,10.0,WNW,20.7,31.1,N/A,,Overcast,290,2013-02-11 19:53:00
2:53 PM,30.0,21.9,72,30.05,10.0,WNW,25.3,34.5,N/A,,Overcast,290,2013-02-11 20:53:00
3:53 PM,30.0,21.9,72,30.07,10.0,WNW,16.1,28.8,N/A,,Overcast,290,2013-02-11 21:53:00
4:53 PM,28.9,21.9,75,30.09,10.0,West,17.3,28.8,N/A,,Overcast,280,2013-02-11 22:53:00
5:53 PM,28.9,21.9,75,30.10,10.0,WNW,15.0,23.0,N/A,,Overcast,300,2013-02-11 23:53:00
6:53 PM,28.0,21.0,75,30.12,10.0,WNW,20.7,28.8,N/A,,Overcast,290,2013-02-12 00:53:00
7:53 PM,27.0,21.0,78,30.13,10.0,WNW,17.3,23.0,N/A,,Overcast,300,2013-02-12 01:53:00
8:53 PM,27.0,21.0,78,30.13,10.0,NW,16.1,-,N/A,,Overcast,310,2013-02-12 02:53:00
9:53 PM,27.0,21.0,78,30.13,9.0,WNW,15.0,-,N/A,,Overcast,300,2013-02-12 03:53:00
10:53 PM,27.0,21.0,78,30.14,9.0,WNW,11.5,19.6,N/A,,Overcast,290,2013-02-12 04:53:00
11:53 PM,26.1,19.9,78,30.15,9.0,NW,12.7,-,N/A,,Overcast,310,2013-02-12 05:53:00